TIANWANG 1B (TW-1B)
1 40927U 15051C   19140.50423556  .00010409  00000-0  16435-3 0  9995
2 40927  97.1412 186.1488 0010252 125.2611 342.5646 15.53628225205480
TIANWANG 1A (TW-1A)
1 40928U 15051D   19140.46417374  .00003452  00000-0  86648-4 0  9996
2 40928  97.1477 172.4144 0010987 169.9966 295.8329 15.40614471204674
LAPAN A2
1 40931U 15052B   19139.96777004 -.00000245  00000-0 -12379-3 0  9991
2 40931   5.9965 268.5989 0015469 119.3214 240.8665 14.76593972196860
LQSAT
1 40958U 15057A   19139.67635023  .00000230  00000-0  43300-4 0  9998
2 40958  97.8994 209.6772 0018405 341.9983  18.0648 14.73078611194382
CHUBUSAT 2
1 41338U 16012B   19139.94916030  .00000311  00000-0  17484-4 0  9997
2 41338  31.0038 333.7859 0013757 169.2978 190.7952 15.00141901178448
CHUBUSAT 3
1 41339U 16012C   19139.92213389  .00000391  00000-0  23644-4 0  9996
2 41339  31.0112 332.0883 0013435 175.7173 184.3576 15.00318852178434
OUFTI-1
1 41458U 16025C   19139.48628211  .00001177  00000-0  63328-4 0  9993
2 41458  98.1016 224.7982 0168511  98.6470 263.3886 15.05735376168035
E-STAR-2
1 41459U 16025D   19140.16029536  .00002188  00000-0  11448-3 0  9994
2 41459  98.1023 225.1867 0169886  97.8541 264.2008 15.05390149168106
AAUSAT 4
1 41460U 16025E   19140.23891045  .00003506  00000-0  17760-3 0  9994
2 41460  98.0969 226.4381 0159555  90.6370 271.3131 15.07243214168236
NUSAT 1
1 41557U 16033B   19140.49350168  .00001195  00000-0  47556-4 0  9993
2 41557  97.4173 228.1650 0015007  46.5254 313.7230 15.27145162165632
BEESAT 4
1 41619U 16040W   19139.42515509  .00001301  00000-0  58122-4 0  9993
2 41619  97.3697 202.2100 0012851 125.5602 234.6835 15.23046016149259
PRATHAM
1 41783U 16059A   19140.12171980  .00000055  00000-0  19776-4 0  9992
2 41783  98.0696 200.3528 0034890 116.2039 244.2757 14.62990874141220
ALSAT 1N
1 41789U 16059G   19140.27225529  .00000091  00000-0  26109-4 0  9991
2 41789  98.0721 202.4303 0029804 105.8640 254.5853 14.64238668141342
NAYIF 1
1 42017U 17008BX  19139.85165820  .00001333  00000-0  55558-4 0  9990
2 42017  97.4047 207.2511 0004518 275.3820  84.6902 15.25443590125375
MAX VALIER SAT
1 42778U 17036P   19140.46897945  .00000913  00000-0  42988-4 0  9990
2 42778  97.3566 198.7755 0011427 334.7220  25.3455 15.21962731105797
